Weather History for KLTS - January, 2013

Change the Weather History Date:

Tuesday, January 1, 2013

  Actual Average Record
Temperature  
Mean Temperature 29 °F -  
Max Temperature 34 °F 50 °F 73 °F (1997)
Min Temperature 24 °F 26 °F 14 °F (2011)
Degree Days  
Heating Degree Days 36    
Moisture  
Dew Point 23 °F    
Average Humidity 78    
Maximum Humidity 93    
Minimum Humidity 65    
Precipitation  
Precipitation 0.00 in - - ()
Sea Level Pressure  
Sea Level Pressure 30.27 in    
Wind  
Wind Speed 11 mph (NNW)    
Max Wind Speed 17 mph    
Max Gust Speed 23 mph    
Visibility 10 miles    
Events      
Averages and records for this station are not official NWS values.
T = Trace of Precipitation, MM = Missing Value Source: NWS Daily Summary

Daily Weather History Graph

Daily Weather History Graph

Search for Another Location

Airport or City:

Trip Planner

Search our weather history database for the weather conditions in past years. The results will help you decide how hot, cold, wet, or windy it might be!

Date:

Astronomy

Jan. 01, 2013 Rise Set
Actual Time 7:44 AM CST 5:37 PM CST
Civil Twilight 7:16 AM CST 6:05 PM CST
Nautical Twilight 6:44 AM CST 6:36 PM CST
Astronomical Twilight 6:14 AM CST 7:07 PM CST
Moon 9:58 PM CST (1/1) 10:07 AM CST (1/1)
Length of Visible Light 10h 49m
Length of Day
9h 53m
Waning Gibbous, 83% of the Moon is Illuminated
Jan 1
Waning Gibbous
Jan 4
Last Quarter
Jan 11
New
Jan 18
First Quarter
Jan 26
Full

Hourly Weather History & Observations

Time (CST) Temp. Windchill Dew Point Humidity Pressure Visibility Wind Dir Wind Speed Gust Speed Precip Events Conditions
12:55 AM 30.2 °F 20.2 °F 27.3 °F 89% 30.12 in 10.0 mi North 12.7 mph 17.3 mph N/A   Partly Cloudy
1:00 AM 30.2 °F 20.8 °F 26.6 °F 86% 30.12 in 10.0 mi North 11.5 mph - N/A   Mostly Cloudy
1:55 AM 30.9 °F 23.5 °F 27.9 °F 88% 30.16 in 10.0 mi NNW 8.1 mph - N/A   Overcast
2:55 AM 30.2 °F 21.9 °F 26.6 °F 86% 30.16 in 10.0 mi North 9.2 mph - N/A   Overcast
3:46 AM 30.2 °F 20.2 °F 24.8 °F 80% 30.18 in 10.0 mi NNW 12.7 mph - N/A   Scattered Clouds
3:55 AM 29.7 °F 20.1 °F 25.5 °F 85% 30.19 in 10.0 mi NNW 11.5 mph - N/A   Scattered Clouds
4:25 AM 30.2 °F 21.3 °F 24.8 °F 80% 30.21 in 10.0 mi NW 10.4 mph - N/A   Mostly Cloudy
4:36 AM 30.2 °F 21.3 °F 24.8 °F 80% 30.20 in 10.0 mi NNW 10.4 mph - N/A   Scattered Clouds
4:55 AM 29.3 °F 20.8 °F 24.6 °F 83% 30.20 in 10.0 mi NNW 9.2 mph - N/A   Scattered Clouds
5:07 AM 30.2 °F 20.8 °F 24.8 °F 80% 30.21 in 10.0 mi NW 11.5 mph - N/A   Mostly Cloudy
5:17 AM 30.2 °F 19.8 °F 24.8 °F 80% 30.20 in 10.0 mi NW 13.8 mph - N/A   Mostly Cloudy
5:55 AM 28.4 °F 17.5 °F 23.4 °F 81% 30.20 in 10.0 mi NW 13.8 mph - N/A   Mostly Cloudy
6:23 AM 28.4 °F 18.0 °F 23.0 °F 80% 30.23 in 10.0 mi NW 12.7 mph - N/A   Mostly Cloudy
6:55 AM 27.1 °F 14.9 °F 21.9 °F 81% 30.23 in 10.0 mi NW 16.1 mph 23.0 mph N/A   Overcast
7:05 AM 26.6 °F 13.8 °F 21.2 °F 80% 30.24 in 10.0 mi NW 17.3 mph - N/A   Mostly Cloudy
7:20 AM 26.6 °F 14.7 °F 21.2 °F 80% 30.26 in 10.0 mi NNW 15.0 mph - N/A   Mostly Cloudy
7:55 AM 26.6 °F 16.2 °F 21.2 °F 80% 30.27 in 10.0 mi NNW 11.5 mph - N/A   Overcast
8:55 AM 27.0 °F 16.1 °F 20.3 °F 76% 30.29 in 10.0 mi NW 12.7 mph - N/A   Overcast
9:55 AM 26.8 °F 15.9 °F 20.3 °F 77% 30.31 in 10.0 mi NNW 12.7 mph - N/A   Overcast
10:55 AM 28.2 °F 18.3 °F 21.7 °F 77% 30.32 in 10.0 mi North 11.5 mph - N/A   Overcast
11:27 AM 30.2 °F 21.3 °F 23.0 °F 75% 30.33 in 10.0 mi North 10.4 mph - N/A   Scattered Clouds
11:43 AM 30.2 °F 20.8 °F 21.2 °F 69% 30.33 in 10.0 mi NNW 11.5 mph - N/A   Mostly Cloudy
11:55 AM 30.2 °F 22.6 °F 22.1 °F 72% 30.33 in 10.0 mi NNW 8.1 mph - N/A   Mostly Cloudy
12:05 PM 30.2 °F 22.6 °F 23.0 °F 75% 30.32 in 10.0 mi North 8.1 mph - N/A   Scattered Clouds
12:40 PM 32.0 °F 23.0 °F 23.0 °F 69% 30.30 in 10.0 mi North 11.5 mph - N/A   Mostly Cloudy
12:55 PM 32.0 °F 23.0 °F 23.4 °F 70% 30.30 in 10.0 mi North 11.5 mph - N/A   Mostly Cloudy
1:06 PM 33.8 °F 25.8 °F 23.0 °F 65% 30.28 in 10.0 mi NNW 10.4 mph - N/A   Scattered Clouds
1:16 PM 33.8 °F 25.3 °F 24.8 °F 70% 30.29 in 10.0 mi NNW 11.5 mph - N/A   Mostly Cloudy
1:55 PM 33.8 °F 27.0 °F 23.5 °F 66% 30.27 in 10.0 mi North 8.1 mph - N/A   Overcast
2:04 PM 33.8 °F 26.4 °F 23.0 °F 65% 30.27 in 10.0 mi North 9.2 mph - N/A   Overcast
2:21 PM 33.8 °F 24.8 °F 23.0 °F 65% 30.26 in 10.0 mi North 12.7 mph - N/A   Overcast
2:55 PM 34.0 °F 26.0 °F 23.5 °F 66% 30.27 in 10.0 mi North 10.4 mph - N/A   Overcast
3:01 PM 33.8 °F 25.3 °F 23.0 °F 65% 30.27 in 10.0 mi North 11.5 mph - N/A   Overcast
3:07 PM 33.8 °F 25.3 °F 24.8 °F 70% 30.27 in 10.0 mi NNW 11.5 mph - N/A   Overcast
3:55 PM 33.6 °F 25.0 °F 23.7 °F 67% 30.28 in 10.0 mi North 11.5 mph - N/A   Overcast
4:21 PM 33.8 °F 23.9 °F 23.0 °F 65% 30.26 in 10.0 mi NNE 15.0 mph - N/A   Scattered Clouds
4:28 PM 33.8 °F 24.3 °F 23.0 °F 65% 30.27 in 10.0 mi North 13.8 mph - N/A   Mostly Cloudy
4:42 PM 33.8 °F 24.8 °F 23.0 °F 65% 30.28 in 10.0 mi North 12.7 mph - N/A   Scattered Clouds
4:55 PM 32.9 °F 24.7 °F 23.5 °F 68% 30.28 in 10.0 mi NNE 10.4 mph - N/A   Scattered Clouds
5:55 PM 28.8 °F 21.7 °F 23.5 °F 81% 30.31 in 10.0 mi NNE 6.9 mph - N/A   Clear
6:55 PM 26.1 °F 20.5 °F 22.6 °F 87% 30.33 in 10.0 mi North 4.6 mph - N/A   Partly Cloudy
7:44 PM 24.8 °F 16.9 °F 23.0 °F 93% 30.33 in 10.0 mi North 6.9 mph - N/A   Mostly Cloudy
7:55 PM 25.2 °F 17.3 °F 23.0 °F 91% 30.33 in 10.0 mi North 6.9 mph - N/A   Mostly Cloudy
7:58 PM 24.8 °F 16.9 °F 23.0 °F 93% 30.33 in 10.0 mi North 6.9 mph - N/A   Scattered Clouds
8:04 PM 24.8 °F 16.9 °F 23.0 °F 93% 30.33 in 10.0 mi North 6.9 mph - N/A   Mostly Cloudy
8:07 PM 24.8 °F 16.9 °F 23.0 °F 93% 30.33 in 10.0 mi North 6.9 mph - N/A   Scattered Clouds
8:55 PM 26.4 °F 18.9 °F 23.7 °F 90% 30.34 in 10.0 mi NNW 6.9 mph - N/A   Partly Cloudy
9:55 PM 26.6 °F 19.1 °F 23.4 °F 88% 30.34 in 10.0 mi NNW 6.9 mph - N/A   Clear
10:55 PM 25.5 °F - 23.2 °F 91% 30.34 in 10.0 mi Calm Calm - N/A   Clear
11:55 PM 25.9 °F 20.3 °F 23.5 °F 91% 30.34 in 10.0 mi WNW 4.6 mph - N/A   Clear